Location: Peebles
(55.6412°N, 3.1714°W)
Time: 12:20:16
(UTC+00:00)

CUTE-I - Pass Details

Date: 11 December 2023
Orbit: 807 x 823 km, 98.7° (Epoch: 24 February)

Event Time Altitude Azimuth Distance (km) Brightness Sun altitude
Rises 19:31:42 0° 230° (SW) 3,329 ? -30.8°
Reaches altitude 10° 19:36:28 10° 269° (W) 2,410 ? -31.5°
Maximum altitude 19:37:30 11° 281° (W) 2,376 ? -31.7°
Drops below altitude 10° 19:38:32 10° 292° (WNW) 2,416 ? -31.8°
Sets 19:43:22 0° 331° (NNW) 3,361 ? -32.5°
